�ϑ��N����,2023/9/27,,,
�ϑ���,��{�M�_,,,
�ϑ��n�_,A1,,,
���x�v�ԍ�,A15,,,
,,,,
����,�C��,����,����,���l
9:30:00,-999,-999,-999,
9:31:00,-999,-999,-999,
9:32:00,-999,-999,-999,
9:33:00,-999,-999,-999,
9:34:00,-999,-999,-999,
9:35:00,-999,-999,-999,
9:36:00,-999,-999,-999,
9:37:00,-999,-999,-999,
9:38:00,-999,-999,-999,
9:39:00,-999,-999,-999,
9:40:00,-999,-999,-999,
9:41:00,-999,-999,-999,
9:42:00,-999,-999,-999,
9:43:00,-999,-999,-999,
9:44:00,-999,-999,-999,
9:45:00,-999,-999,-999,
9:46:00,-999,-999,-999,
9:47:00,-999,-999,-999,
9:48:00,-999,-999,-999,
9:49:00,-999,-999,-999,
9:50:00,31.6,8,-999,�_
9:51:00,31,7,-999,��
9:52:00,31,2,-999,��
9:53:00,30.8,6,-999,��
9:54:00,31.2,6,-999,��
9:55:00,31.8,8,-999,��
9:56:00,32.5,8,-999,��
9:57:00,32.8,7,-999,��
9:58:00,33,8,-999,�_
9:59:00,32.6,4,-999,�_
10:00:00,31.4,6,-999,�_
10:01:00,30.3,8,-999,�_
10:02:00,30,6,-999,��
10:03:00,29.8,6,-999,��
10:04:00,30,2,-999,��
10:05:00,30,1,-999,��
10:06:00,29.7,1,-999,��
10:07:00,29.7,8,-999,��
10:08:00,30.8,8,-999,��
10:09:00,30.2,5,-999,��
10:10:00,30.8,1,-999,��
10:11:00,30.9,8,-999,��
10:12:00,31.2,6,-999,��
10:13:00,31.7,8,-999,��
10:14:00,31.5,8,-999,��
10:15:00,31.8,7,-999,��
10:16:00,31.3,8,-999,�_
10:17:00,30.6,6,-999,�_
10:18:00,30.4,7,-999,��
10:19:00,30.1,6,-999,��
10:20:00,30.5,6,-999,��
10:21:00,30.9,6,-999,��
10:22:00,31.3,4,-999,��
10:23:00,31.6,8,-999,��
10:24:00,31,8,-999,��
10:25:00,31.2,6,-999,��
10:26:00,31.5,5,-999,��
10:27:00,31.8,6,-999,��
10:28:00,31,6,-999,�_
10:29:00,30.5,6,-999,�_
10:30:00,30,8,-999,�_
10:31:00,30.8,7,-999,��
10:32:00,30.2,6,-999,��
10:33:00,30,6,-999,�_
10:34:00,29.6,6,-999,�_
10:35:00,29.8,8,-999,�_
10:36:00,30.2,2,-999,��
10:37:00,31,2,-999,��
10:38:00,30.8,6,-999,�_
10:39:00,30.8,3,-999,�_
10:40:00,30.2,6,-999,��
10:41:00,30.1,7,-999,�_
10:42:00,30.4,6,-999,�_
10:43:00,30.6,5,-999,��
10:44:00,30.2,7,-999,��
10:45:00,30.8,5,-999,��
10:46:00,30.7,6,-999,��
10:47:00,30.5,5,-999,�_
10:48:00,30.7,6,-999,�_
10:49:00,30.5,7,-999,�_
10:50:00,30.4,8,-999,�_
10:51:00,30.5,7,-999,��
10:52:00,30.5,7,-999,��
10:53:00,30.5,6,-999,�_
10:54:00,30.4,8,-999,�_
10:55:00,30.8,8,-999,�_
10:56:00,30.9,8,-999,�_
10:57:00,30.5,5,-999,��
10:58:00,30.6,5,-999,��
10:59:00,30.2,7,-999,��
11:00:00,30.1,6,-999,�����̓�
11:01:00,29.9,5,-999,�����̓�
11:02:00,29.9,5,-999,�����̓�
11:03:00,30,8,-999,�����̓�
11:04:00,29.8,7,-999,�����̓�
11:05:00,30,5,-999,�_
11:06:00,30,7,-999,�_
11:07:00,30,7,-999,�_
11:08:00,29.8,7,-999,�_
11:09:00,30,6,-999,�_
11:10:00,30,6,-999,�_
11:11:00,29.9,8,-999,�_
11:12:00,29.5,7,-999,�_
11:13:00,29.6,8,-999,�_
11:14:00,29.9,5,-999,�_
11:15:00,29.9,5,-999,�_
11:16:00,29.8,6,-999,�_
11:17:00,29.9,7,-999,�_
11:18:00,29.5,8,-999,�_
11:19:00,29.7,7,-999,�_
11:20:00,-999,-999,-999,�_
11:21:00,29.8,6,-999,�_
11:22:00,29.8,7,-999,�_
11:23:00,29.9,6,-999,�_
11:24:00,30.1,7,-999,��
11:25:00,30.1,7,-999,��
11:26:00,30.6,3,-999,��
11:27:00,30.7,8,-999,��
11:28:00,30.2,6,-999,��
11:29:00,30.5,6,-999,��
11:30:00,30.8,1,-999,��
